Date String (YYYY-MM-DD hh:mm:ss) UTC,Instrument flags,Ambient pressure (hPa),Sample flow (lpm),Bypass flow (lpm),Sample temperature (°C),Ambient temperature (°C),ASC tube jacket temperature (°C),LED temperature (°C),Box temperature (°C),Sample RH (%),Span deviation,Mass concentration (μg/m³),Mass concentration (μg/m³),Mass concentration (μg/m³)
DateTimeUTC,F1_M11,P_M11,Q1_M11,Q2_M11,T1_M11,T2_M11,T3_M11,T4_M11,T5_M11,U1_M11,ZSPAN_M11,X2_M11,X0_M11,X1_M11
2022-02-22 23:00:00,,0827.7,5.00,0.00,22.6,22.0,00.0,31.6,24.4,03.5,0000.8,0005.54,0010.50,0004.99
2022-02-22 23:01:00,,0827.7,5.00,0.00,22.6,21.8,00.0,31.6,24.3,03.5,0002.3,0005.56,0010.87,0005.01
2022-02-22 23:02:00,,0827.7,5.00,0.00,22.5,21.5,00.0,31.6,24.2,03.4,0002.0,0005.56,0012.10,0005.03
2022-02-22 23:03:00,,0827.7,5.01,0.00,22.5,21.4,00.0,31.6,24.1,03.4,0001.8,0005.55,0012.04,0005.04
2022-02-22 23:04:00,,0827.7,5.00,0.00,22.5,21.5,00.0,31.5,24.1,03.3,0001.6,0005.57,0011.59,0005.05
2022-02-22 23:05:00,,0827.7,5.00,0.00,22.5,21.5,00.0,31.5,24.2,03.4,0001.3,0005.53,0011.50,0005.04
2022-02-22 23:06:00,,0827.7,5.00,0.00,22.4,21.5,00.0,31.5,24.2,03.4,0000.9,0005.52,0011.44,0005.04
2022-02-22 23:07:00,,0827.7,5.01,0.00,22.4,21.5,00.0,31.5,24.2,03.4,0001.4,0005.54,0011.08,0005.04
2022-02-22 23:08:00,,0827.7,5.00,0.00,22.4,21.5,00.0,31.5,24.2,03.4,0001.5,0005.56,0011.18,0005.04
2022-02-22 23:09:00,,0827.7,4.99,0.00,22.4,21.5,00.0,31.5,24.2,03.4,0001.7,0005.55,0011.14,0005.03
2022-02-22 23:10:00,,0827.8,5.00,0.00,22.4,21.3,00.0,31.4,24.1,03.4,0001.8,0005.53,0011.10,0005.02
2022-02-22 23:11:00,,0827.7,5.00,0.00,22.3,21.2,00.0,31.4,24.0,03.3,0001.9,0005.52,0011.10,0005.01
2022-02-22 23:12:00,,0827.7,5.01,0.00,22.3,21.1,00.0,31.4,24.0,03.3,0001.8,0005.53,0011.75,0005.01
2022-02-22 23:13:00,,0827.7,5.00,0.00,22.3,21.1,00.0,31.4,23.9,03.4,0001.7,0005.54,0010.56,0005.00
2022-02-22 23:14:00,,0827.8,5.00,0.00,22.3,21.1,00.0,31.4,23.9,03.4,0001.1,0005.53,0010.30,0005.00
2022-02-22 23:15:00,,0827.8,5.00,0.00,22.2,21.1,00.0,31.3,23.9,03.5,0001.2,0005.48,0010.09,0004.99
2022-02-22 23:16:00,,0827.8,5.00,0.00,22.2,21.1,00.0,31.3,23.9,03.4,0001.4,0005.48,0010.12,0004.97
2022-02-22 23:17:00,,0827.9,5.00,0.00,22.2,21.2,00.0,31.3,23.9,03.4,0001.3,0005.45,0010.07,0004.95
2022-02-22 23:18:00,,0827.8,5.01,0.00,22.2,21.5,00.0,31.3,23.9,03.3,0000.3,0005.43,0010.00,0004.93
2022-02-22 23:19:00,,0827.9,4.99,0.00,22.4,22.3,00.0,31.4,24.2,03.3,0000.2,0005.42,0009.57,0004.92
2022-02-22 23:20:00,,0827.9,5.01,0.00,22.5,23.0,00.0,31.4,24.5,03.4,0000.8,0005.43,0009.77,0004.91
2022-02-22 23:21:00,,0827.9,5.00,0.00,22.6,23.0,00.0,31.4,24.6,03.3,0000.4,0005.43,0010.06,0004.90
2022-02-22 23:22:00,,0827.9,5.00,0.00,22.6,22.7,00.0,31.4,24.6,03.3,0000.4,0005.42,0010.04,0004.89
2022-02-22 23:23:00,,0827.9,4.99,0.00,22.6,22.4,00.0,31.4,24.5,03.2,0000.6,0005.43,0009.30,0004.89
2022-02-22 23:24:00,,0827.9,5.01,0.00,22.6,22.2,00.0,31.4,24.4,03.1,0000.2,0005.43,0009.15,0004.89
2022-02-22 23:25:00,,0828.0,5.00,0.00,22.6,22.0,00.0,31.4,24.4,03.2,0000.7,0005.43,0009.27,0004.89
2022-02-22 23:26:00,,0827.9,5.00,0.00,22.6,22.0,00.0,31.4,24.4,03.2,0000.6,0005.43,0010.28,0004.89
2022-02-22 23:27:00,,0827.9,4.99,0.00,22.6,21.9,00.0,31.4,24.3,03.2,0000.3,0005.46,0010.59,0004.92
2022-02-22 23:28:00,,0828.0,5.01,0.00,22.5,21.7,00.0,31.4,24.3,03.2,0000.1,0005.47,0010.59,0004.93
2022-02-22 23:29:00,,0828.0,5.00,0.00,22.5,21.6,00.0,31.4,24.2,03.2,0000.9,0005.47,0010.62,0004.94
2022-02-22 23:30:00,,0828.0,5.02,0.00,22.5,21.5,00.0,31.4,24.2,03.2,0000.9,0005.45,0010.53,0004.95
2022-02-22 23:31:00,,0828.0,5.00,0.00,22.4,21.4,00.0,31.4,24.2,03.1,0000.3,0005.45,0010.34,0004.96
2022-02-22 23:32:00,,0827.9,5.00,0.00,22.4,21.5,00.0,31.4,24.2,03.2,0000.8,0005.44,0009.99,0004.96
2022-02-22 23:33:00,,0828.1,5.00,0.00,22.4,21.5,00.0,31.4,24.2,03.3,0000.5,0005.42,0009.94,0004.97
2022-02-22 23:34:00,,0828.3,5.00,0.00,22.4,21.5,00.0,31.4,24.2,03.2,0000.3,0005.38,0009.84,0004.97
2022-02-22 23:35:00,,0828.4,5.00,0.00,22.4,21.5,00.0,31.4,24.2,03.1,0000.6,0005.32,0010.04,0004.95
2022-02-22 23:36:00,,0828.0,5.01,0.00,22.4,21.5,00.0,31.4,24.1,03.1,0000.5,0005.29,0009.93,0004.94
2022-02-22 23:37:00,,0828.0,4.98,0.00,22.4,21.5,00.0,31.4,24.1,03.0,0000.0,0005.32,0009.10,0004.96
2022-02-22 23:38:00,,0828.0,5.01,0.00,22.4,21.5,00.0,31.3,24.1,03.0,0000.0,0005.34,0009.19,0004.96
2022-02-22 23:39:00,,0828.0,4.99,0.00,22.4,21.5,00.0,31.3,24.1,03.0,0000.0,0005.33,0009.46,0004.94
2022-02-22 23:40:00,,0828.1,5.01,0.00,22.4,21.5,00.0,31.3,24.1,03.1,0000.0,0005.35,0009.65,0004.95
2022-02-22 23:41:00,,0828.4,5.01,0.00,22.3,21.5,00.0,31.3,24.1,03.2,0000.0,0005.36,0009.64,0004.96
2022-02-22 23:42:00,,0828.0,5.01,0.00,22.3,21.5,00.0,31.3,24.1,03.2,0000.0,0005.35,0009.66,0004.96
2022-02-22 23:43:00,,0828.1,4.98,0.00,22.4,21.7,00.0,31.3,24.1,03.2,0000.0,0005.37,0009.80,0004.96
2022-02-22 23:44:00,,0828.1,5.01,0.00,22.5,22.4,00.0,31.4,24.3,03.2,0000.0,0005.39,0009.93,0004.96
2022-02-22 23:45:00,,0828.2,5.00,0.00,22.6,23.0,00.0,31.4,24.6,03.2,0000.0,0005.42,0010.72,0004.96
2022-02-22 23:46:00,,0828.1,5.00,0.00,22.7,23.1,00.0,31.4,24.7,03.1,0000.0,0005.44,0010.70,0004.97
2022-02-22 23:47:00,,0828.2,4.99,0.00,22.7,22.9,00.0,31.5,24.7,03.1,0000.0,0005.45,0010.94,0004.97
2022-02-22 23:48:00,,0828.2,4.99,0.00,22.7,22.7,00.0,31.5,24.7,03.0,0000.0,0005.45,0011.28,0004.97
2022-02-22 23:49:00,,0828.3,5.01,0.00,22.7,22.5,00.0,31.5,24.6,03.1,0000.0,0005.39,0010.69,0004.96
2022-02-22 23:50:00,,0828.3,5.00,0.00,22.7,22.4,00.0,31.5,24.6,03.2,0000.0,0005.36,0010.34,0004.96
2022-02-22 23:51:00,,0828.2,5.00,0.00,22.7,22.2,00.0,31.5,24.5,03.3,0000.0,0005.35,0010.27,0004.93
2022-02-22 23:52:00,,0828.4,5.00,0.00,22.7,22.1,00.0,31.5,24.5,03.2,0000.0,0005.34,0010.31,0004.91
2022-02-22 23:53:00,,0828.2,5.00,0.00,22.7,22.1,00.0,31.5,24.4,03.2,0001.4,0005.34,0010.29,0004.90
2022-02-22 23:54:00,,0828.4,5.00,0.00,22.6,22.0,00.0,31.5,24.4,03.2,0001.9,0005.31,0010.11,0004.89
2022-02-22 23:55:00,,0828.3,5.01,0.00,22.6,21.9,00.0,31.5,24.4,03.3,0001.9,0005.30,0010.46,0004.88
2022-02-22 23:56:00,,0828.2,5.00,0.00,22.6,21.9,00.0,31.5,24.4,03.2,0002.0,0005.33,0010.25,0004.89
2022-02-22 23:57:00,,0828.1,5.00,0.00,22.6,21.8,00.0,31.5,24.3,03.2,0001.5,0005.31,0009.91,0004.88
2022-02-22 23:58:00,,0828.5,4.99,0.00,22.6,21.8,00.0,31.5,24.3,03.3,0001.2,0005.27,0009.59,0004.87
2022-02-22 23:59:00,,0828.2,5.00,0.00,22.5,21.7,00.0,31.5,24.3,03.3,0001.5,0005.26,0009.13,0004.86
